K7SSW Weather Reports


Display with metric or nautical units.
time (UTC)temp
F
wind
direction
speed
MPH
gust
MPH
rain 1hr
in
rain 24hr
in
rain mn
in
humidity
%
barometer
mb
20260507024540 56 173 0.0 3.0 0.00 0.00 0.00 81 1021.6
20260507023038 56 0 1.0 5.0 0.00 0.00 0.00 81 1021.5
20260507021544 56 229 1.0 5.0 0.00 0.00 0.00 81 1021.6
20260507020041 56 197 1.0 4.0 0.00 0.00 0.00 81 1021.5
20260507014547 56 195 2.0 8.0 0.00 0.00 0.00 81 1021.4
20260507013037 56 201 3.0 7.0 0.00 0.00 0.00 81 1021.6
20260507011540 56 157 3.0 6.0 0.00 0.00 0.00 80 1021.6
20260507010038 56 138 0.0 7.0 0.00 0.00 0.00 81 1021.6
20260507004545 56 166 1.0 7.0 0.00 0.00 0.00 81 1021.7
20260507003040 56 169 4.0 8.0 0.00 0.00 0.00 80 1021.6
20260507001547 56 164 1.0 8.0 0.00 0.00 0.00 80 1021.6
20260507000038 56 165 3.0 7.0 0.00 0.00 0.00 80 1021.7
20260506234537 56 130 2.0 5.0 0.00 0.00 0.00 80 1021.7
20260506233037 56 198 4.0 9.0 0.00 0.00 0.00 80 1021.8
20260506231536 56 145 2.0 8.0 0.00 0.00 0.00 80 1021.7
20260506230041 56 142 3.0 9.0 0.00 0.00 0.00 79 1021.8
20260506224539 56 171 2.0 10.0 0.00 0.00 0.00 79 1021.8
20260506223037 57 201 4.0 9.0 0.00 0.00 0.00 78 1021.8
20260506221538 57 157 5.0 11.0 0.00 0.00 0.00 77 1021.8
20260506220040 56 194 3.0 11.0 0.00 0.00 0.00 78 1021.9
20260506214548 57 229 4.0 10.0 0.00 0.00 0.00 76 1021.9
20260506213040 57 139 2.0 5.0 0.00 0.00 0.00 77 1021.9
20260506211539 57 161 2.0 8.0 0.00 0.00 0.00 77 1021.9
20260506210037 58 166 2.0 8.0 0.00 0.00 0.00 76 1021.8
20260506204543 57 151 5.0 12.0 0.00 0.00 0.00 77 1021.8
20260506203039 57 186 2.0 7.0 0.00 0.00 0.00 77 1021.7
20260506201537 56 261 5.0 11.0 0.00 0.00 0.00 78 1021.7
20260506200048 56 250 2.0 8.0 0.00 0.00 0.00 79 1021.8
20260506194542 56 187 3.0 7.0 0.00 0.00 0.00 80 1021.6
20260506193039 55 143 6.0 10.0 0.00 0.00 0.00 80 1021.6
20260506191538 55 192 3.0 8.0 0.00 0.00 0.00 81 1021.7
20260506190037 56 181 3.0 8.0 0.00 0.00 0.00 82 1021.5
20260506184537 55 145 3.0 10.0 0.00 0.00 0.00 82 1021.5
20260506183039 54 159 4.0 10.0 0.00 0.00 0.00 84 1021.6
20260506181539 54 205 4.0 10.0 0.00 0.00 0.00 85 1021.5
20260506180046 55 193 4.0 11.0 0.00 0.00 0.00 85 1021.5
20260506174537 54 146 2.0 12.0 0.00 0.00 0.00 86 1021.1
20260506173041 53 150 3.0 9.0 0.00 0.00 0.00 88 1021.0
20260506171545 53 143 2.0 11.0 0.00 0.00 0.00 88 1021.4
20260506170041 53 190 3.0 8.0 0.00 0.00 0.00 88 1021.4
20260506164538 53 151 2.0 7.0 0.00 0.00 0.00 88 1021.3
20260506163039 53 173 3.0 10.0 0.00 0.00 0.00 88 1021.3
20260506161537 53 170 4.0 9.0 0.00 0.00 0.00 89 1021.0
20260506160038 53 184 2.0 9.0 0.00 0.00 0.00 90 1020.7
20260506154542 52 110 4.0 9.0 0.00 0.00 0.00 92 1020.5
20260506153038 52 126 4.0 12.0 0.00 0.00 0.00 92 1020.8
20260506151538 52 192 1.0 5.0 0.00 0.00 0.00 92 1021.1
20260506150038 52 192 2.0 7.0 0.00 0.00 0.00 92 1021.1
20260506144551 52 155 2.0 7.0 0.00 0.00 0.00 92 1020.6
20260506143037 52 191 3.0 6.0 0.00 0.00 0.00 92 1020.7
20260506141538 52 218 2.0 5.0 0.00 0.00 0.00 92 1020.7
20260506140038 52 209 1.0 6.0 0.00 0.00 0.00 91 1020.6
20260506134537 52 203 2.0 5.0 0.00 0.00 0.00 90 1020.5
20260506133042 52 204 3.0 8.0 0.00 0.00 0.00 90 1020.4
20260506131536 52 211 1.0 6.0 0.00 0.00 0.00 90 1020.4
20260506130044 52 142 1.0 6.0 0.00 0.00 0.00 89 1020.3
20260506124540 52 163 2.0 8.0 0.00 0.00 0.00 89 1019.8
20260506123039 52 185 1.0 4.0 0.00 0.00 0.00 89 1020.1
20260506121538 52 169 1.0 8.0 0.00 0.00 0.00 89 1019.9
20260506120038 52 155 3.0 9.0 0.00 0.00 0.00 89 1019.8
20260506114539 52 173 1.0 7.0 0.00 0.00 0.00 89 1019.9
20260506113038 52 92 2.0 7.0 0.00 0.00 0.00 89 1019.7
20260506111537 52 137 3.0 7.0 0.00 0.00 0.00 89 1019.5
20260506110039 52 151 1.0 6.0 0.00 0.00 0.00 89 1019.6
20260506104537 52 187 1.0 4.0 0.00 0.00 0.00 89 1019.4
20260506103038 52 224 0.0 4.0 0.00 0.00 0.00 89 1019.4
20260506101541 52 213 2.0 7.0 0.00 0.00 0.00 88 1019.5
20260506100038 53 207 1.0 6.0 0.00 0.00 0.00 88 1019.3
20260506094538 52 181 2.0 8.0 0.00 0.00 0.00 88 1019.2
20260506093041 52 198 2.0 5.0 0.00 0.00 0.00 88 1019.1
20260506091537 53 0 1.0 4.0 0.00 0.00 0.00 87 1018.9
20260506090039 53 180 0.0 5.0 0.00 0.00 0.00 87 1018.9
20260506084540 53 150 2.0 7.0 0.00 0.00 0.00 87 1018.9
20260506083042 53 0 0.0 5.0 0.00 0.00 0.00 87 1018.8
20260506081537 54 221 1.0 4.0 0.00 0.00 0.00 87 1018.7
20260506073038 55 117 3.0 9.0 0.00 0.00 0.00 85 1018.5
20260506071541 55 167 3.0 9.0 0.00 0.00 0.00 85 1018.5
20260506061538 57 213 0.0 5.0 0.00 0.00 0.00 82 1018.2
20260506044546 59 131 2.0 4.0 0.00 0.00 0.00 81 1017.6
20260506043040 59 123 2.0 6.0 0.00 0.00 0.00 80 1017.6
20260506041550 60 117 2.0 4.0 0.00 0.00 0.00 79 1017.4
20260506040040 60 94 1.0 3.0 0.00 0.00 0.00 78 1017.5
20260506034544 61 90 1.0 2.0 0.00 0.00 0.00 77 1017.4
20260506033038 61 40 1.0 5.0 0.00 0.00 0.00 76 1017.3
20260506031538 62 140 1.0 4.0 0.00 0.00 0.00 75 1017.2
20260506030042 63 132 2.0 5.0 0.00 0.00 0.00 73 1017.1